Погода в Вильнюсе

Поиск расширенной информации на нашем сайте:

Полезная информация:

Новости сайта



02.01.2020
Опубликован Долгосрочный прогноз погоды по городам России и ближнего зарубежья на январь 2020 года.
Карты: Прогноз на январь и февраль 2020 года, Сравнение прогнозируемой аномалии приземной температуры воздуха на январь 2020 года по разным моделям.




Погода в Вильнюсе - сегодня

Время (UTC), дата Ветер
(°,м/с) 
Видим.   Явления Облачность Т
(°С)
Тd
(°С)
f(%) Тe
(°С)
Pmin
(гПа)
dP
(гПа)
Po
(мм)
O2
(г/м3)
Тmin Tmax R s Состояние
почвы
09 26.02.20 210 (ЮЗ) 4-6{08}  20000 м  {туман}  1/0 средняя 
[Ac trans]
+4.6 +2.3 85 +3  991.9  0.3  730  289           
12 26.02.20 220 (ЮЗ) 5-8{10}  20000 м  {туман}  5/3 1000 м средняя 
[Cu med, cong|Ac trans]
+7 -0.6 58 +5  991.6  -0.2  730  287           
15 26.02.20 200 (Ю) 2-3{09}  20000 м    9/9 1500 м 
[Sc]
+6.3 +0 64 +6  991.8  0.2  730  287           
18 26.02.20 190 (Ю) 4-6{06}  20000 м  в посл. час морось  9/9 1020 м 
[Sc]
+4.6 +1.9 83 +3  992.5  0.6  730  289    +8.4  0.0     
21 26.02.20 150 (ЮВ) 3-4{08}  15000 м  слаб. морось{дождь}  10/10 930 м 
[Ns]
+2.3 +1.8 96 +1  992.8  0.1  730  291           
00 27.02.20 240 (ЮЗ) 2-3{04}  5000 м  дымка{дождь, морось}  10/10 60 м 
[St]
+2.1 +1.9 99 +1  992.7  0.1  730  292         
03 27.02.20 280 (З) 2-4{05}  12000 м  в посл. час дождь  9/6 1500 м средняя 
[Sc|Ac As]
+1.4 +0.6 94 +1  993.3  0.5  731  293           
06 27.02.20 230 (ЮЗ) 2-4{05}  10 км  {дождь}  8/8 870 м 
[Sc]
+0.2 -0.3 96 -1  995  1.6  732  295  +0.1      влажная 
09 27.02.20 240 (ЮЗ) 3-6{07}  20000 м    10/10 500 м 
[Cu Sc]
+1 -0.3 91 -1  996.1  1.1  733  294           
12 27.02.20 260 (З) 5-9{11}  20000 м    9/9 1440 м 
[Cu Sc]
+2.3 -2.5 71 995.7  -0.3  732  293           
15 27.02.20 230 (ЮЗ) 4-8{11}  20000 м  в посл. час дождь со снегом  9/9 1170 м 
[Cu Sc]
+1.7 -2.4 74 996.5  0.8  733  294           
18 27.02.20 250 (З) 4-8{10}  20000 м  слаб. дождь со снегом  9/9 540 м средняя 
[As op]
+0.6 -2.6 79 -2  997.1  0.5  733  295    +3.3  0.0     
21 27.02.20 250 (З) 4-6{08}  20000 м  {снег, дождь}  4/4 1500 м 
[Sc]
-0.2 -4.1 75 -3  997.6  0.4  734  296           
00 28.02.20 250 (З) 4-7{08}  20000 м  в посл. час дождь со снегом  10/10 1170 м 
[Sc]
-0.1 -4.4 73 -3  998.4  0.8  734  296      0.0     
03 28.02.20 250 (З) 4-8{09}  20000 м  в посл. час дождь со снегом  10/10 1500 м 
[Sc]
-0.3 -3.5 79 -3  998.9  0.5  735  297           
06 28.02.20 250 (З) 5-8{09}  20000 м  в посл. час снег{дождь}  8/8 1050 м 
[Sc]
-0.7 -3.1 84 -4  1000.7  1.7  736  298  -0.7    0.0    замёрзшая 
09 28.02.20 270 (З) 6-10{10}  20000 м    10/10 840 м 
[Sc]
+0.7 -3.7 72 -3  1002.8  2.2  738  297           
12 28.02.20 260 (З) 5-8{11}  20000 м  {снег, дождь}  10/10 660 м 
[Sc]
+1.9 -3 70 -1  1003.9  1.2  739  296      0.0     
15 28.02.20 260 (З) 4-6{10}  11000 м  слаб. дождь со снегом  9/9 450 м средняя 
[As op]
+1.1 -0.7 88 -1  1005.8  1.8  740  297           
18 28.02.20 260 (З) 4-8{09}  20000 м  в посл. час дождь{снег}  9/9 1500 м 
[Sc]
+0.7 -0.9 89 -2  1007.6  1.7  741  298    +2.7  0.3     
21 28.02.20 220 (ЮЗ) 2-3{08}  20000 м    8/8 1500 м 
[Sc]
-0.6 -1.6 93 -1  1008.6  0.9  742  300           
00 29.02.20 210 (ЮЗ) 3-5{05}  20000 м  {снег, дождь}  6/4 720 м средняя 
[Sc|Ac trans]
-0.8 -2.5 88 -3  1008.6  742  300      0.0     
03 29.02.20 240 (ЮЗ) 2-4{05}  20000 м    10/10 360 м 
[St]
+0 -1.6 89 -1  1008.4  -0.2  742  299           
06 29.02.20 230 (ЮЗ) 2-4{05}  5000 м  слаб. снег{дождь}  10/10 720 м 
[Ns]
+0 -0.6 96 -1  1008.5  -0.1  742  299  -0.9    0.0    замёрзшая 
09 29.02.20 240 (ЮЗ) 3-6{06}  20000 м  в посл. час дождь со снегом  10/10 840 м 
[Sc]
+1.5 +0 90 1009.3  0.9  742  297           
Время (UTC), дата Ветер
(°,м/с) 
Видим.   Явления Облачность Т
(°С)
Тd
(°С)
f(%) Тe
(°С)
Pmin
(гПа)
dP
(гПа)
Po
(мм)
O2
(г/м3)
Тmin Tmax R s Состояние
почвы

Для получения пояснительной информации подведите курсор к названию столбца.

ПОГОДА в Вильнюсе - архив

Всё, что Вы хотите узнать о погоде в Вильнюсе - удобно и подробно!

Выберите нужную дату (начиная с 1 января 2019* года) и нажмите кнопку "Найти".
Будут отображены архивные сводки погоды по пункту Вильнюс, начиная с указанной даты.


Отображать данные в формате CSV (для использования в таблицах Excel)


Внимание! Наш архив погоды предназначен исключительно для личного некоммерческого использования в познавательных целях. Если Вам необходимы официальные справки о состоянии погоды (для производственных, юридических, коммерческих и т.п. целей), обращайтесь в органы Росгидромета.

*Примечание: данная дата относится к архиву по метеостанциям СССР (Россия, СНГ, Балтия).
Архив по метеостанциям Зарубежной Европы и Азии (кроме Китая) хранится 10 дней, по другим регионам земного шара (Китай, Африка, Америка, Австралия, Океания) - 1 день.

Вильнюс - район местоположения метеостанции


Название, широта, долгота, высота метеостанции:
Вильнюс 54.6°ш. 25.1°д. 156 м над ур. моря [Литва]

Дополнительная информация

В oтличие oт бoльшинства пoгoдных сайтoв мы публикуем пoдрoбную метеoинфoрмацию в детальнoм прoфессиoнальнoм фoрмате.

Характеристики температуры и влажнoсти вoздуха измеряются на высoте 2 м в тени вдали oт зданий и деревьев.
Скoрoсть ветра измеряется на высoте 10 м (на урoвне рoста челoвека скoрoсть ветра ниже в 1.5-2 раза). Если метеoстанция нахoдится в гoрoде или в лесу, тo скoрoсть ветра занижена на 2-4 м/с пo сравнению с oткрытым местoм. Скoрoсть ветра над акватoриями крупных рек и oзёр, а также на вершинах хoлмoв на 2-5 м/с выше, чем в oбычных услoвиях.
Атмoсфернoе давление в разных тoчках местнoсти мoжет значительнo oтличаться oт давления на метеoстанции, в зависимoсти oт услoвий рельефа (при пoдъёме на 10 м давление пoнижается примернo на 1 мм рт.ст.).